星链-32389 (STARLINK-32389)

导读

STARLINK-32389是美国SpaceX公司星链(Starlink)星座的组网卫星,于2024年10月15日发射升空,星链项目旨在构建全球覆盖的低轨卫星互联网系统,为全球提供高速宽带网络服务。该卫星运行于近地轨道,是星链大规模组网计划的组成部分,将与其他星链卫星协同,补充增强星座的通信覆盖能力,服务全球偏远地区及移动场景的互联网接入需求。

Basic Information
目录编号:
61549
目录名称:
STARLINK-32389
国际标识:
2024-184T
轨道中心:
EARTH
卫星名称:
星链-32389
卫星全名:
星链-32389 (STARLINK-32389)
卫星状态:
在轨 (已飞行697 天)
发射日期:
2024-10-15 UTC
国别 :
美国 (US)
星等 :
--
This satellite is enrolled in the Space Conjunction Data Service (SCDS) and the current flight risk assessment level is: High Risk
Orbit Information
数据来源 国际轨道数据 AOE轨道数据
星历时间 2026-09-12T06:45:42+0800
6小时前
查看轨道信息
2026-09-11T00:00:00+0800
1天前
查看轨道信息
半长轴 6840.859km 6840.851km
偏心率 0.0001366 0.000111
轨道倾角 53.158° 53.158°
近地点辐角 101.061° 84.120°
升交点赤经 227.399° 233.399°
平近点角 259.055° 31.947°
近地点 461.787km 461.954km
远地点 463.657km 463.474km
周期 93.848分钟 93.848分钟
每日圈数 15.343939 15.343965
Detailed Information
固有亮度:
5
最大亮度:
2.5
卫星平台:
Starlink V1.0
覆盖范围:
全球
运营商:
太空探索技术公司
运营商所在国:
美国
制造商(研发单位):
太空探索技术公司
制造商所在国:
美国
使用方式:
暂无
Satellite Introduction
Starlink 计划是 SpaceX 推出的全球卫星互联网项目,通过发射低轨道卫星,为全球尤其是偏远地区提供高速、低延迟的互联网服务。自 2019 年起,Starlink 已部署数千颗卫星,旨在缩小全球数字鸿沟,推动互联网普及。该项目还为军事、航空等行业提供通信支持,带来广泛经济效益。
2D Orbit Map
3D Orbit Map
Orbit Altitude Analysis Chart
Orbit Inclination Analysis Chart
Orbit Comprehensive Analysis Chart
View Comprehensive Chart
Conjunction Data List
Event ID Objects TCA Miss Dist (km) Collision Risk Probability Collision Risk Index (CRI) Action
CDM_260913-092806-154906-938021
2026-09-13T
09:28:58+0000
0.359 km
远距离
2.208516E-4 高风险 0.82
CDM_260913-163106-154906-574821
2026-09-13T
16:31:20+0000
0.813 km
远距离
2.340946E-5 中风险 0.62
CDM_260913-163106-154906-938021
2026-09-13T
16:31:02+0000
0.919 km
远距离
1.630583E-5 中风险 0.59
CDM_260913-123606-154906-574821
2026-09-13T
12:36:51+0000
0.955 km
远距离
1.358033E-5 中风险 0.58
CDM_260914-145005-082906-154921
2026-09-14T
14:50:08+0000
2.101 km
极远距离
2.245454E-6 低风险 0.42
CDM_260912-064405-468606-154925
OBJECT E (54686)
2026-09-12T
06:44:47+0000
2.758 km
极远距离
1.483347E-6 低风险 0.38
CDM_260913-190405-301906-154921
2026-09-13T
19:04:10+0000
2.741 km
极远距离
1.139855E-6 低风险 0.36
CDM_260913-172905-301306-154921
2026-09-13T
17:29:17+0000
2.727 km
极远距离
1.097068E-6 低风险 0.36
CDM_260913-145706-154906-938021
2026-09-13T
14:57:14+0000
2.303 km
极远距离
1.049117E-6 低风险 0.35
CDM_260913-001805-302306-154921
2026-09-13T
00:18:23+0000
2.921 km
极远距离
1.039277E-6 低风险 0.35
Miss Distance Evolution Trend with All Objects
Collision Probability Evolution Trend with All Objects